647  
ASUS41 KRLX 220410  
RWRRLX  
WEST VIRGINIA REGIONAL WEATHER ROUNDUP  
NATIONAL WEATHER SERVICE CHARLESTON WV  
1200 AM EDT SUN APR 22 2018  
 
NOTE: "FAIR" INDICATES FEW OR NO CLOUDS BELOW 12,000 FEET WITH NO  
SIGNIFICANT WEATHER AND/OR S TO VISIBILITY
.  
 
WVZ003-220500-  
NORTHERN PANHANDLE OF WEST VIRGINIA  
 
CITY SKY/WX TMP DP RH WIND PRES REMARKS
 
WHEELING MOCLDY 50 22 33 NE8 30.35F  

 
 
WVZ009-220500-  
NORTHWEST WEST VIRGINIA  
 
CITY SKY/WX TMP DP RH WIND PRES REMARKS
 
PARKERSBURG FAIR 52 23 32 NE5 30.36S  

 
 
WVZ006-220500-  
WESTERN WEST VIRGINIA  
 
CITY SKY/WX TMP DP RH WIND PRES REMARKS
 
HUNTINGTON FAIR 55 19 24 E7 30.30S  

 
 
WVZ015-220500-  
WEST CENTRAL WEST VIRGINIA  
 
CITY SKY/WX TMP DP RH WIND PRES REMARKS
 
CHARLESTON FAIR 55 21 26 CALM 30.29F  

 
 
WVZ022-031-220500-  
NORTH CENTRAL WEST VIRGINIA  
 
CITY SKY/WX TMP DP RH WIND PRES REMARKS
 
CLARKSBURG MOCLDY 51 24 34 NE6 30.33F  
MORGANTOWN MOCLDY 50 23 34 CALM 30.36S  

 
 
WVZ025-035-042-045-220500-  
SOUTHERN WEST VIRGINIA  
 
CITY SKY/WX TMP DP RH WIND PRES REMARKS
 
BECKLEY FAIR 52 21 29 CALM 30.30F  
LOGAN FAIR 57 18 21 NE5 30.28S  
BLUEFIELD FAIR 53 27 36 VRB6 30.30F  
LEWISBURG FAIR 51 29 43 CALM 30.32S  

 
 
WVZ047-220500-  
NORTHERN MOUNTAINS OF WEST VIRGINIA  
 
CITY SKY/WX TMP DP RH WIND PRES REMARKS
 
ELKINS FAIR 44 33 65 CALM 30.33S  

 
 
WVZ052-220500-  
EASTERN PANHANDLE OF WEST VIRGINIA  
 
CITY SKY/WX TMP DP RH WIND PRES REMARKS
 
MARTINSBURG FAIR 47 32 56 E3 30.35S  
PETERSBURG MOCLDY 42 33 71 CALM 30.35S  

 
 
 
CLICK HERE TO GO TO PREVIOUS BULLETINS.

The Nexlab WV Page
The Nexlab OH Page
The Nexlab KY Page
The Nexlab VA Page Main Text Page